Terug naar catalogus

STARLINK-5302

ActiefCommunicatieVLEO
NORAD 56556·PAYLOAD·🇺🇸 United States

Gelanceerd May 14, 2023 vanaf Cape Canaveral Space Force Station

Loading…

Volgende Passages (komende 24 uur)

TLE

VersSource: CelesTrak SupGP

Epoch: Sep 14, 2026, 22:07 UTC

1 56556C 23065BF  26257.92201389  .00026184  00000+0  94864-3 0  2570
2 56556  43.0025 234.7676 0000710 283.9030  99.3961 15.27557747    19

Volg STARLINK-5302 in realtime met AllMySat

Download on the App Store